Home > Weather > Oer-Erkenschwick > Past weeks

Flag for Germany Past Weather in Oer-Erkenschwick, North Rhine-Westphalia, Germany — Yesterday and Last 2 Weeks

Now
77 °F

Sunny.


Feels Like: 79 °F
Forecast: 66 / 89 °F
Wind: 6 mph from North

Location: Dortmund / Wickede

Current Time: Aug 26, 2016 at 10:02:10 PM

Latest Report: Aug 26, 2016 at 8:50 PM


Visibility: 10 mi

Pressure: 30.07 "Hg

Humidity: 61%

Dew Point: 63 °F

Location of Oer-ErkenschwickLocation

Past Weather in Oer-Erkenschwick — Graph

°F

Oer-Erkenschwick Temperature Yesterday

Maximum temperature yesterday: 91 °F (at 3:50 PM)
Minimum temperature yesterday: 63 °F (at 6:20 AM)
Average temperature yesterday: 81 °F

High & Low Weather Summary for the Past Weeks

 TemperatureHumidityPressure
High91 °F (Aug 25, 3:50 PM)94% (Aug 12, 6:20 AM)30.36 "Hg (Aug 12, 6:20 AM)
Low48 °F (Aug 16, 6:20 AM)16% (Aug 25, 3:50 PM)29.80 "Hg (Aug 18, 2:50 PM)
Average68 °F57%30.08 "Hg
* Reported Aug 11 8:20 PM — Aug 26 8:50 PM, Oer-Erkenschwick, Weather by CustomWeather, © 2016

Note: Actual official high and low records may vary slightly from our data, if they occured in-between our weather recording intervals... More about our weather records

Advertising

Oer-Erkenschwick Weather History for the Previous 24 Hours

Scroll right to see more
 ConditionsComfort  
Time TempWeatherWind HumidityBarometerVisibility
8:50 PM
Fri, Aug 26
77 °FSunny.6 mph61%30.07 "Hg10 mi
8:20 PM79 °FSunny.5 mph54%30.04 "Hg10 mi
7:50 PM82 °FSunny.7 mph51%30.04 "Hg10 mi
7:20 PM84 °FPassing clouds.5 mph48%30.04 "HgN/A
6:50 PM84 °FPassing clouds.7 mph48%30.04 "HgN/A
6:20 PM88 °FPassing clouds.6 mph40%30.04 "HgN/A
5:50 PM88 °FSunny.6 mph40%30.04 "Hg10 mi
5:20 PM90 °FPassing clouds.6 mph38%30.04 "HgN/A
4:50 PM90 °FPassing clouds.6 mph36%30.01 "HgN/A
4:20 PM90 °FSunny.6 mph31%30.04 "Hg10 mi
3:50 PM91 °FPassing clouds.6 mph30%30.01 "HgN/A
3:20 PM91 °FSunny.5 mph32%30.01 "Hg10 mi
2:50 PM90 °FSunny.5 mph33%30.01 "Hg10 mi
2:20 PM90 °FPassing clouds.6 mph33%30.01 "HgN/A
1:50 PM90 °FPassing clouds.6 mph31%30.01 "HgN/A
1:20 PM90 °FPassing clouds.6 mph31%30.01 "HgN/A
12:50 PM88 °FPassing clouds.5 mph33%30.01 "HgN/A
12:20 PM88 °FPassing clouds.5 mph33%30.01 "HgN/A
11:50 AM86 °FPassing clouds.5 mph35%30.01 "HgN/A
11:20 AM86 °FPassing clouds.7 mph35%30.01 "HgN/A
10:50 AM84 °FPassing clouds.6 mph35%30.01 "HgN/A
10:20 AM82 °FPassing clouds.8 mph37%30.01 "HgN/A
9:50 AM81 °FSunny.9 mph39%30.01 "Hg10 mi
9:20 AM79 °FSunny.9 mph39%29.98 "Hg10 mi
8:50 AM77 °FSunny.13 mph42%29.98 "Hg10 mi
8:20 AM75 °FSunny.12 mph44%29.98 "Hg10 mi
7:50 AM73 °FSunny.12 mph47%29.98 "Hg10 mi
7:20 AM72 °FClear.13 mph50%29.98 "Hg10 mi
6:50 AM70 °FClear.12 mph50%29.98 "Hg10 mi
6:20 AM70 °FClear.12 mph53%29.98 "Hg10 mi
5:50 AM70 °FClear.10 mph53%29.98 "Hg10 mi
5:20 AM70 °FClear.10 mph53%29.98 "Hg10 mi
Weather by CustomWeather, © 2016

See weather overviewHow to use our weather pages